GW6974 Weather Reports


time (UTC)temp
F
wind
direction
speed
knots
gust
knots
rain 1hr
in
rain 24hr
in
rain mn
in
humidity
%
barometer
mb
20260906131521 80 160 0.0 1.7 0.00 0.00 0.00 86 1014.1
20260906131012 79 172 0.0 1.7 0.00 0.00 0.00 86 1014.1
20260906130510 79 137 0.0 1.7 0.00 0.00 0.00 85 1014.2
20260906130029 79 1 0.0 1.7 0.00 0.00 0.00 86 1014.1
20260906125513 78 96 0.0 1.7 0.00 0.00 0.00 87 1014.1
20260906125014 78 96 0.0 1.7 0.00 0.00 0.00 88 1014.1
20260906124530 77 100 0.0 0.0 0.00 0.00 0.00 89 1014.2
20260906124005 77 99 0.0 1.7 0.00 0.00 0.00 89 1014.1
20260906123504 76 99 0.0 1.7 0.00 0.00 0.00 89 1014.1
20260906123008 76 99 0.9 1.7 0.00 0.00 0.00 90 1014.0
20260906122505 76 84 0.0 1.7 0.00 0.00 0.00 90 1014.0
20260906122005 75 233 0.0 1.7 0.00 0.00 0.00 92 1014.0
20260906121527 75 233 0.0 1.7 0.00 0.00 0.00 93 1014.1
20260906121007 74 236 0.0 1.7 0.00 0.00 0.00 93 1014.1
20260906120512 74 236 0.0 1.7 0.00 0.00 0.00 93 1014.1
20260906120024 74 236 0.0 1.7 0.00 0.00 0.00 93 1014.1
20260906115512 73 236 0.0 1.7 0.00 0.00 0.00 93 1014.0
20260906115014 73 236 0.9 1.7 0.00 0.00 0.00 93 1014.0
20260906114531 73 317 0.0 1.7 0.00 0.00 0.00 93 1013.8
20260906114014 73 316 0.0 1.7 0.00 0.00 0.00 93 1013.9
20260906113514 73 316 0.0 1.7 0.00 0.00 0.00 93 1013.8
20260906113024 73 316 0.0 1.7 0.00 0.00 0.00 93 1013.7
20260906112503 73 316 0.0 1.7 0.00 0.00 0.00 93 1013.8
20260906112006 73 316 0.0 1.7 0.00 0.00 0.00 93 1013.7
20260906111515 73 316 0.0 1.7 0.00 0.00 0.00 93 1013.6
20260906111006 73 317 0.0 0.9 0.00 0.00 0.00 93 1013.7
20260906110508 73 316 0.0 1.7 0.00 0.00 0.00 93 1013.7
20260906110025 73 316 0.0 1.7 0.00 0.00 0.00 93 1013.9
20260906105511 73 316 0.0 1.7 0.00 0.00 0.00 93 1013.8
20260906105012 73 316 0.0 1.7 0.00 0.00 0.00 93 1013.7
20260906104530 73 317 0.0 1.7 0.00 0.00 0.00 93 1013.8
20260906104014 73 316 0.0 1.7 0.00 0.00 0.00 93 1013.8
20260906103514 73 316 0.0 0.0 0.00 0.00 0.00 93 1013.9
20260906103034 73 316 0.0 0.0 0.00 0.00 0.00 93 1014.0
20260906102518 73 316 0.0 1.7 0.00 0.00 0.00 93 1013.9
20260906102004 73 316 0.0 1.7 0.00 0.00 0.00 93 1013.9
20260906101512 73 330 0.0 1.7 0.00 0.00 0.00 93 1013.9
20260906101005 73 330 0.0 1.7 0.00 0.00 0.00 93 1013.9
20260906100510 73 330 0.0 1.7 0.00 0.00 0.00 93 1013.8
20260906100022 73 330 0.0 1.7 0.00 0.00 0.00 93 1013.6
20260906095509 73 330 0.0 1.7 0.00 0.00 0.00 93 1013.4
20260906095013 73 330 0.0 1.7 0.00 0.00 0.00 93 1013.3
20260906094527 73 330 0.0 1.7 0.00 0.00 0.00 93 1013.3
20260906094014 73 330 0.0 0.0 0.00 0.00 0.00 92 1013.2
20260906093518 73 330 0.0 1.7 0.00 0.00 0.00 92 1013.2
20260906093032 73 330 0.0 1.7 0.00 0.00 0.00 92 1013.2
20260906092518 73 330 0.9 1.7 0.00 0.00 0.00 92 1013.3
20260906092018 73 268 0.0 1.7 0.00 0.00 0.00 92 1013.3
20260906091535 73 268 0.0 1.7 0.00 0.00 0.00 92 1013.2
20260906091007 73 268 0.0 1.7 0.00 0.00 0.00 93 1013.0
20260906090509 73 268 0.0 1.7 0.00 0.00 0.00 92 1013.1
20260906090019 73 159 0.0 0.0 0.00 0.00 0.00 92 1013.0
20260906085512 73 159 0.0 1.7 0.00 0.00 0.00 92 1013.0
20260906085012 73 159 0.0 1.7 0.00 0.00 0.00 92 1013.0
20260906084531 74 159 0.0 0.0 0.00 0.00 0.00 92 1013.0
20260906084013 74 159 0.0 1.7 0.00 0.00 0.00 92 1013.0
20260906083516 74 159 0.0 1.7 0.00 0.00 0.00 92 1013.0
20260906083028 74 159 0.0 1.7 0.00 0.00 0.00 92 1013.1
20260906082516 74 159 0.0 1.7 0.00 0.00 0.00 92 1013.2
20260906082014 74 159 0.0 1.7 0.00 0.00 0.00 92 1013.0
20260906081542 74 159 0.0 1.7 0.00 0.00 0.00 92 1012.9
20260906081015 74 158 0.0 1.7 0.00 0.00 0.00 92 1013.0
20260906080516 74 157 0.9 1.7 0.00 0.00 0.00 92 1013.0
20260906080014 74 305 0.0 1.7 0.00 0.00 0.00 92 1013.0
20260906075510 74 305 0.0 1.7 0.00 0.00 0.00 91 1012.9
20260906075009 74 305 0.9 1.7 0.00 0.00 0.00 92 1013.0
20260906074522 74 304 0.0 1.7 0.00 0.00 0.00 92 1012.9
20260906074010 74 304 0.0 1.7 0.00 0.00 0.00 92 1012.8
20260906073514 74 304 0.0 1.7 0.00 0.00 0.00 91 1012.8
20260906073030 74 340 0.0 0.9 0.00 0.00 0.00 91 1012.8
20260906072514 74 340 0.0 0.9 0.00 0.00 0.00 91 1012.9
20260906072016 74 309 0.0 0.9 0.00 0.00 0.00 91 1012.9
20260906071536 74 296 0.0 1.7 0.00 0.00 0.00 91 1013.0
20260906071022 74 1 0.0 1.7 0.00 0.00 0.00 90 1013.0
20260906070516 74 1 0.0 1.7 0.00 0.00 0.00 91 1012.9
20260906070034 74 1 0.0 1.7 0.00 0.00 0.00 91 1013.1
20260906065515 74 1 0.0 1.7 0.00 0.00 0.00 91 1013.1
20260906065009 74 1 0.0 1.7 0.00 0.00 0.00 91 1013.2
20260906064520 74 1 0.0 1.7 0.00 0.00 0.00 90 1013.4
20260906064009 75 1 0.0 1.7 0.00 0.00 0.00 90 1013.3
20260906063511 75 1 0.0 1.7 0.00 0.00 0.00 90 1013.3
20260906063005 75 1 0.0 1.7 0.00 0.00 0.00 89 1013.5
20260906062502 75 1 0.0 1.7 0.00 0.00 0.00 89 1013.5
20260906062003 75 1 0.0 1.7 0.00 0.00 0.00 89 1013.5
20260906061509 75 1 0.0 1.7 0.00 0.00 0.00 88 1013.6
20260906061003 75 1 0.0 1.7 0.00 0.00 0.00 88 1013.6
20260906060507 75 307 0.0 1.7 0.00 0.00 0.00 87 1013.6
20260906060024 76 307 0.0 1.7 0.00 0.00 0.00 87 1013.5
20260906055507 76 307 0.0 1.7 0.00 0.00 0.00 87 1013.5
20260906055007 76 307 0.0 1.7 0.00 0.00 0.00 87 1013.6
20260906054516 76 307 0.0 1.7 0.00 0.00 0.00 87 1013.6
20260906054008 76 307 0.0 1.7 0.00 0.00 0.00 87 1013.6
20260906053511 76 307 0.9 1.7 0.00 0.00 0.00 86 1013.6
20260906053032 76 4 0.0 1.7 0.00 0.00 0.00 86 1013.6
20260906052514 76 4 0.0 1.7 0.00 0.00 0.00 86 1013.7
20260906052004 76 4 0.0 1.7 0.00 0.00 0.00 86 1013.8
20260906051506 76 51 0.0 1.7 0.00 0.00 0.00 87 1013.8
20260906051004 76 51 0.0 1.7 0.00 0.00 0.00 87 1013.8
20260906050503 76 25 0.0 1.7 0.00 0.00 0.00 87 1013.9
20260906050028 76 24 0.0 1.7 0.00 0.00 0.00 87 1013.7
20260906045503 76 31 0.9 1.7 0.00 0.00 0.00 87 1013.8
20260906045007 76 64 0.0 1.7 0.00 0.00 0.00 87 1013.6
20260906044528 76 65 0.9 1.7 0.00 0.00 0.00 86 1013.6
20260906044009 76 159 0.0 1.7 0.00 0.00 0.00 87 1013.7
20260906043508 76 162 0.0 1.7 0.00 0.00 0.00 87 1013.7
20260906043023 76 162 0.9 1.7 0.00 0.00 0.00 86 1013.8
20260906042512 77 191 0.9 1.7 0.00 0.00 0.00 85 1014.0
20260906042013 77 277 0.0 1.7 0.00 0.00 0.00 84 1013.9
20260906041534 77 292 0.0 1.7 0.00 0.00 0.00 85 1014.1
20260906041004 76 296 0.0 1.7 0.00 0.00 0.00 86 1014.0
20260906040503 77 298 0.9 1.7 0.00 0.00 0.00 86 1014.1
20260906040011 77 68 0.0 1.7 0.00 0.00 0.00 85 1014.1
20260906035505 77 108 0.0 1.7 0.00 0.00 0.00 85 1014.0
20260906035004 77 108 0.0 1.7 0.00 0.00 0.00 85 1014.1
20260906034517 78 108 0.0 1.7 0.00 0.00 0.00 85 1014.2
20260906034007 78 108 0.0 1.7 0.00 0.00 0.00 84 1014.4
20260906033509 78 357 0.0 1.7 0.00 0.00 0.00 84 1014.2
20260906033036 78 357 0.0 1.7 0.00 0.00 0.00 83 1014.2
20260906032511 79 357 0.0 1.7 0.00 0.00 0.00 85 1014.2
20260906032010 79 303 0.0 1.7 0.00 0.00 0.00 84 1014.2
20260906031531 79 37 0.0 1.7 0.00 0.00 0.00 84 1014.3
20260906031017 79 37 0.0 1.7 0.00 0.00 0.00 84 1014.2
20260906030516 79 37 0.9 1.7 0.00 0.00 0.00 83 1014.4
20260906030010 79 52 0.0 1.7 0.00 0.00 0.00 83 1014.2
20260906025504 79 1 0.0 1.7 0.00 0.00 0.00 83 1014.2
20260906025004 79 295 0.9 1.7 0.00 0.00 0.00 84 1014.1
20260906024514 79 358 1.7 1.7 0.00 0.00 0.00 84 1013.9
20260906024009 80 39 0.9 1.7 0.00 0.00 0.00 83 1013.7
20260906023508 79 342 0.0 1.7 0.00 0.00 0.00 83 1013.6
20260906023017 79 330 0.0 1.7 0.00 0.00 0.00 84 1013.5
20260906022509 79 183 0.9 1.7 0.00 0.00 0.00 84 1013.6
20260906022014 79 150 0.9 1.7 0.00 0.00 0.00 84 1013.9
20260906021528 80 203 0.0 1.7 0.00 0.00 0.00 83 1013.8
20260906021014 80 203 0.0 2.6 0.00 0.00 0.00 82 1013.8
20260906020513 80 202 0.9 2.6 0.00 0.00 0.00 82 1014.0
20260906020030 80 233 0.0 4.3 0.00 0.00 0.00 81 1014.1
20260906015516 80 263 1.7 9.6 0.00 0.00 0.00 82 1014.3
20260906015004 79 37 2.6 9.6 0.00 0.00 0.00 85 1014.4
20260906014511 78 353 1.7 2.6 0.00 0.00 0.00 86 1014.2
20260906014005 78 44 0.9 1.7 0.00 0.00 0.00 86 1013.6
20260906013506 79 129 0.0 0.9 0.00 0.00 0.00 85 1013.4
20260906013020 79 129 0.0 1.7 0.00 0.00 0.00 85 1013.3
20260906012507 79 157 0.0 1.7 0.00 0.00 0.00 85 1013.2
20260906012012 79 157 0.0 1.7 0.00 0.00 0.00 84 1013.3
20260906011533 79 21 0.0 1.7 0.00 0.00 0.00 83 1013.2
20260906011011 79 20 0.0 1.7 0.00 0.00 0.00 83 1013.3
20260906010516 80 20 0.0 1.7 0.00 0.00 0.00 83 1013.3
20260906010032 80 20 0.0 1.7 0.00 0.00 0.00 82 1013.1
20260906005515 80 20 0.0 1.7 0.00 0.00 0.00 82 1012.9
20260906005015 80 20 0.0 1.7 0.00 0.00 0.00 82 1012.7
20260906004531 80 20 0.0 1.7 0.00 0.00 0.00 81 1012.4
20260906004004 80 21 0.0 1.7 0.00 0.00 0.00 81 1012.3
20260906003506 81 21 0.0 1.7 0.00 0.00 0.00 81 1012.2
20260906003013 81 20 0.0 0.9 0.00 0.00 0.00 80 1012.2
20260906002510 81 1 0.0 0.0 0.00 0.00 0.00 79 1012.4
20260906002008 81 1 0.0 1.7 0.00 0.00 0.00 79 1012.2
20260906001523 82 1 0.0 1.7 0.00 0.00 0.00 78 1012.2
20260906001011 82 1 0.0 1.7 0.00 0.00 0.00 77 1012.4
20260906000509 82 16 0.0 1.7 0.00 0.00 0.00 78 1012.4
20260906000026 82 118 0.0 1.7 0.00 0.00 0.00 78 1012.5
20260905235515 82 60 0.0 1.7 0.00 0.00 0.00 77 1012.6
20260905235015 83 60 0.0 1.7 0.00 0.00 0.00 77 1012.7
20260905234531 83 155 0.0 1.7 0.00 0.00 0.00 76 1012.7
20260905234016 84 155 0.0 1.7 0.00 0.00 0.00 75 1012.6
20260905233518 84 155 0.0 1.7 0.00 0.00 0.00 73 1012.5
20260905233009 84 148 0.9 1.7 0.00 0.00 0.00 73 1012.6
20260905232503 84 186 0.0 1.7 0.00 0.00 0.00 72 1012.5
20260905232008 85 180 0.0 3.5 0.00 0.00 0.00 71 1012.7
20260905231516 85 81 1.7 4.3 0.00 0.00 0.00 70 1012.8
20260905231010 86 222 0.9 4.3 0.00 0.00 0.00 71 1012.8
20260905230511 86 177 0.9 3.5 0.00 0.00 0.00 71 1012.7
20260905230030 86 158 1.7 3.5 0.00 0.00 0.00 72 1012.7
20260905225515 86 191 0.9 3.5 0.00 0.00 0.00 71 1012.7
20260905225018 87 155 0.9 3.5 0.00 0.00 0.00 71 1012.6
20260905224540 87 150 1.7 3.5 0.00 0.00 0.00 69 1012.6
20260905224019 87 162 1.7 5.2 0.00 0.00 0.00 68 1012.7
20260905223515 87 204 0.9 5.2 0.00 0.00 0.00 67 1012.7
20260905223035 88 174 1.7 5.2 0.00 0.00 0.00 67 1012.7
20260905222518 88 173 1.7 5.2 0.00 0.00 0.00 67 1012.7
20260905222004 88 181 0.9 6.1 0.00 0.00 0.00 68 1012.6
20260905221517 88 253 1.7 6.1 0.00 0.00 0.00 67 1012.6
20260905221009 88 195 0.9 3.5 0.00 0.00 0.00 69 1012.5
20260905220510 88 170 1.7 6.1 0.00 0.00 0.00 67 1012.4
20260905220024 88 188 3.5 6.1 0.00 0.00 0.00 67 1012.4
20260905215513 89 214 0.0 6.1 0.00 0.00 0.00 68 1012.5
20260905215012 89 174 1.7 7.0 0.00 0.00 0.00 66 1012.4
20260905214527 88 163 1.7 7.0 0.00 0.00 0.00 66 1012.4
20260905214014 89 160 2.6 6.1 0.00 0.00 0.00 66 1012.3
20260905213516 89 172 1.7 5.2 0.00 0.00 0.00 67 1012.4
20260905213033 89 179 0.9 2.6 0.00 0.00 0.00 65 1012.5
20260905212515 89 195 0.9 5.2 0.00 0.00 0.00 66 1012.5
20260905212017 88 148 1.7 5.2 0.00 0.00 0.00 66 1012.7
20260905211532 88 260 0.9 4.3 0.00 0.00 0.00 67 1012.7
20260905211007 88 184 2.6 6.1 0.00 0.00 0.00 67 1012.7
20260905210511 88 139 2.6 7.8 0.00 0.00 0.00 67 1012.8
20260905210019 88 148 3.5 7.8 0.00 0.00 0.00 66 1012.7
20260905205511 88 138 1.7 3.5 0.00 0.00 0.00 66 1012.7
20260905205012 88 183 1.7 4.3 0.00 0.00 0.00 67 1012.7
20260905204527 88 210 1.7 4.3 0.00 0.00 0.00 67 1012.7
20260905204013 88 226 1.7 5.2 0.00 0.00 0.00 67 1012.8
20260905203514 88 169 2.6 6.1 0.00 0.00 0.00 68 1012.9
20260905203037 88 277 2.6 6.1 0.00 0.00 0.00 67 1013.0
20260905202516 88 122 0.9 9.6 0.00 0.00 0.00 69 1013.1
20260905202014 87 167 2.6 9.6 0.00 0.00 0.00 68 1013.1
20260905201512 88 174 2.6 5.2 0.00 0.00 0.00 68 1013.4
20260905201010 88 177 1.7 7.0 0.00 0.00 0.00 69 1013.5
20260905200507 88 158 4.3 7.8 0.00 0.00 0.00 67 1013.5
20260905200021 88 222 3.5 7.8 0.00 0.00 0.00 67 1013.6
20260905195508 89 211 2.6 7.0 0.00 0.00 0.00 67 1013.7
20260905195015 89 141 1.7 7.0 0.00 0.00 0.00 69 1013.7
20260905194527 88 99 1.7 6.1 0.00 0.00 0.00 67 1013.7
20260905194003 88 184 1.7 6.1 0.00 0.00 0.00 68 1013.7
20260905193505 88 208 2.6 7.0 0.00 0.00 0.00 68 1013.6
20260905193009 88 199 2.6 7.8 0.00 0.00 0.00 69 1013.8
20260905192503 88 164 2.6 7.8 0.00 0.00 0.00 69 1013.7
20260905192004 87 302 2.6 7.0 0.00 0.00 0.00 70 1013.8
20260905191508 88 227 2.6 8.7 0.00 0.00 0.00 71 1013.9
20260905191006 87 326 3.5 8.7 0.00 0.00 0.00 70 1013.9
20260905190508 87 202 1.7 7.8 0.00 0.00 0.00 71 1014.0
20260905190013 87 124 3.5 7.8 0.00 0.00 0.00 71 1014.1
20260905185509 87 169 5.2 7.8 0.00 0.00 0.00 71 1014.1
20260905185010 88 202 1.7 7.0 0.00 0.00 0.00 72 1014.1
20260905184531 87 174 2.6 7.8 0.00 0.00 0.00 72 1014.2
20260905184012 87 145 1.7 7.8 0.00 0.00 0.00 72 1014.4
20260905183513 87 162 3.5 7.0 0.00 0.00 0.00 72 1014.4
20260905183002 87 180 4.3 7.0 0.00 0.00 0.00 72 1014.5
20260905182504 87 184 1.7 7.0 0.00 0.00 0.00 73 1014.5
20260905182003 86 264 1.7 7.0 0.00 0.00 0.00 75 1015.0
20260905181508 85 141 0.9 7.8 0.00 0.00 0.00 75 1015.1
20260905181004 84 153 2.6 7.0 0.00 0.00 0.00 76 1015.0
20260905180504 84 113 2.6 7.0 0.00 0.00 0.00 76 1015.3
20260905180014 85 187 1.7 7.8 0.00 0.00 0.00 75 1015.3
20260905175508 84 160 3.5 7.8 0.00 0.00 0.00 75 1015.4
20260905175008 84 134 1.7 7.8 0.00 0.00 0.00 76 1015.4
20260905174524 84 181 3.5 7.8 0.00 0.00 0.00 76 1015.3
20260905174015 85 206 1.7 9.6 0.00 0.00 0.00 75 1015.3
20260905173512 85 253 3.5 9.6 0.00 0.00 0.00 75 1015.0
20260905173031 85 294 1.7 8.7 0.00 0.00 0.00 74 1015.1
20260905172513 85 167 4.3 8.7 0.00 0.00 0.00 75 1015.3
20260905172004 85 154 3.5 7.8 0.00 0.00 0.00 74 1015.2
20260905171513 85 182 4.3 10.4 0.00 0.00 0.00 74 1015.3
20260905171003 85 190 5.2 13.0 0.00 0.00 0.00 75 1015.3
20260905170505 85 162 5.2 12.2 0.00 0.00 0.00 73 1015.4
20260905170012 86 134 1.7 7.0 0.00 0.00 0.00 74 1015.6
20260905165507 86 142 3.5 7.8 0.00 0.00 0.00 72 1015.6
20260905165012 88 145 5.2 7.8 0.00 0.00 0.00 67 1015.5
20260905164516 91 54 0.0 2.6 0.00 0.00 0.00 56 1015.4
20260905164009 91 129 0.9 4.3 0.00 0.00 0.00 56 1015.4
20260905163510 92 23 0.9 4.3 0.00 0.00 0.00 55 1015.5
20260905163035 93 85 0.9 3.5 0.00 0.00 0.00 58 1015.5
20260905162516 92 222 0.9 3.5 0.00 0.00 0.00 55 1015.6
20260905162014 92 60 1.7 4.3 0.00 0.00 0.00 54 1015.6
20260905161529 92 319 2.6 4.3 0.00 0.00 0.00 54 1015.8
20260905161004 92 325 0.9 4.3 0.00 0.00 0.00 55 1015.8
20260905160505 92 359 0.9 2.6 0.00 0.00 0.00 56 1015.6
20260905160013 92 67 0.9 4.3 0.00 0.00 0.00 57 1015.5
20260905155506 91 105 0.9 4.3 0.00 0.00 0.00 56 1015.5
20260905155006 91 263 1.7 4.3 0.00 0.00 0.00 58 1015.5
20260905154516 92 93 0.9 4.3 0.00 0.00 0.00 59 1015.4
20260905154008 91 61 0.9 4.3 0.00 0.00 0.00 60 1015.4
20260905153508 91 14 1.7 5.2 0.00 0.00 0.00 62 1015.4
20260905153023 90 157 0.9 5.2 0.00 0.00 0.00 60 1015.4
20260905152511 90 53 0.9 4.3 0.00 0.00 0.00 63 1015.4
20260905152013 89 27 1.7 4.3 0.00 0.00 0.00 62 1015.3
20260905151533 90 60 2.6 3.5 0.00 0.00 0.00 62 1015.4
20260905151013 90 240 0.0 2.6 0.00 0.00 0.00 64 1015.4
20260905150514 89 354 0.9 2.6 0.00 0.00 0.00 69 1015.3
20260905150011 88 20 1.7 2.6 0.00 0.00 0.00 68 1015.3
20260905145506 88 86 1.7 2.6 0.00 0.00 0.00 67 1015.4
20260905145007 88 312 0.0 1.7 0.00 0.00 0.00 69 1015.4
20260905144513 88 188 0.0 2.6 0.00 0.00 0.00 69 1015.4
20260905144007 87 132 0.0 3.5 0.00 0.00 0.00 71 1015.4
20260905143508 87 40 2.6 3.5 0.00 0.00 0.00 70 1015.5
20260905143025 86 37 0.0 1.7 0.00 0.00 0.00 74 1015.4
20260905142511 86 359 0.0 1.7 0.00 0.00 0.00 73 1015.5
20260905142011 86 68 0.9 1.7 0.00 0.00 0.00 74 1015.5
20260905141526 85 75 0.9 2.6 0.00 0.00 0.00 75 1015.5
20260905141013 85 98 0.9 2.6 0.00 0.00 0.00 75 1015.5
20260905140514 84 349 0.9 2.6 0.00 0.00 0.00 75 1015.6
20260905140038 84 76 0.9 2.6 0.00 0.00 0.00 77 1015.6
20260905135517 83 104 0.9 2.6 0.00 0.00 0.00 77 1015.6
20260905135006 82 21 0.9 2.6 0.00 0.00 0.00 79 1015.6
20260905134511 82 334 1.7 2.6 0.00 0.00 0.00 79 1015.6
20260905134011 81 96 0.9 1.7 0.00 0.00 0.00 81 1015.6
20260905133508 81 82 0.0 1.7 0.00 0.00 0.00 82 1015.6
20260905133018 81 42 0.0 1.7 0.00 0.00 0.00 82 1015.6
20260905132518 80 56 0.0 1.7 0.00 0.00 0.00 82 1015.7
20260905132010 79 46 0.9 1.7 0.00 0.00 0.00 83 1015.7